Voltar ao catálogo

STARLINK-34963

AtivoComunicaçõesSSO
NORAD 65242·PAYLOAD·🇺🇸 United States

Lançado Aug 18, 2025 de Vandenberg Space Force Base

Loading…

Próximas Passagens (próximas 24 horas)

TLE

AtualizadoSource: CelesTrak SupGP

Época: Sep 15, 2026, 04:06 UTC

1 65242C 25179H   26258.17131944 -.00027494  00000+0 -85373-3 0  2580
2 65242  97.2837 297.6044 0001097  87.5782  76.7774 15.33444058    19

Acompanhe STARLINK-34963 em tempo real com AllMySat

Download on the App Store